Time,TemperatureF,DewpointF,PressureIn,WindDirection,WindDirectionDegrees,WindSpeedMPH,WindSpeedGustMPH,Humidity,HourlyPrecipIn,Conditions,Clouds,dailyrainin,SoftwareType,DateUTC
2013-05-30 00:01:00,54.0,46.0,-100.00,NNE,30,3.0,6.0,73,-99.99,,,-99.99,,2013-05-30 07:01:00,
2013-05-30 00:11:00,54.0,46.0,-100.00,NE,42,4.0,5.0,75,-99.99,,,-99.99,,2013-05-30 07:11:00,
2013-05-30 00:21:00,53.0,46.0,-100.00,NE,38,4.0,5.0,77,-99.99,,,-99.99,,2013-05-30 07:21:00,
2013-05-30 00:31:00,54.0,46.0,-100.00,NE,50,5.0,7.0,75,-99.99,,,-99.99,,2013-05-30 07:31:00,
2013-05-30 00:42:00,54.0,47.0,-100.00,NE,56,6.0,7.0,76,-99.99,,,-99.99,,2013-05-30 07:42:00,
2013-05-30 00:52:00,54.0,46.0,-100.00,NE,56,6.0,7.0,75,-99.99,,,-99.99,,2013-05-30 07:52:00,
2013-05-30 01:01:00,54.0,47.0,-100.00,NE,49,5.0,7.0,76,-99.99,,,-99.99,,2013-05-30 08:01:00,
2013-05-30 01:11:00,53.0,46.0,-100.00,NE,48,5.0,6.0,76,-99.99,,,-99.99,,2013-05-30 08:11:00,
2013-05-30 01:21:00,52.0,45.0,-100.00,NE,47,5.0,7.0,76,-99.99,,,-99.99,,2013-05-30 08:21:00,
2013-05-30 01:31:00,52.0,45.0,-100.00,NE,47,5.0,7.0,76,-99.99,,,-99.99,,2013-05-30 08:31:00,
2013-05-30 01:42:00,52.0,45.0,-100.00,NE,47,5.0,7.0,76,-99.99,,,-99.99,,2013-05-30 08:42:00,
2013-05-30 01:52:00,52.0,45.0,-100.00,NE,47,5.0,7.0,76,-99.99,,,-99.99,,2013-05-30 08:52:00,
2013-05-30 02:01:00,50.0,43.0,-100.00,NE,39,4.0,5.0,78,-99.99,,,-99.99,,2013-05-30 09:01:00,
2013-05-30 02:11:00,50.0,43.0,-100.00,NE,39,4.0,5.0,78,-99.99,,,-99.99,,2013-05-30 09:11:00,
2013-05-30 02:21:00,51.0,45.0,-100.00,NE,43,4.0,5.0,80,-99.99,,,-99.99,,2013-05-30 09:21:00,
2013-05-30 02:32:00,50.0,44.0,-100.00,NE,42,4.0,6.0,80,-99.99,,,-99.99,,2013-05-30 09:32:00,
2013-05-30 02:42:00,51.0,45.0,-100.00,NE,38,4.0,5.0,79,-99.99,,,-99.99,,2013-05-30 09:42:00,
2013-05-30 02:53:00,51.0,45.0,-100.00,NE,38,4.0,5.0,79,-99.99,,,-99.99,,2013-05-30 09:53:00,
2013-05-30 03:02:00,50.0,44.0,-100.00,NE,49,8.0,10.0,79,-99.99,,,-99.99,,2013-05-30 10:02:00,
2013-05-30 03:12:00,50.0,44.0,-100.00,NE,46,8.0,11.0,80,-99.99,,,-99.99,,2013-05-30 10:12:00,
2013-05-30 03:22:00,50.0,44.0,-100.00,NE,40,7.0,9.0,80,-99.99,,,-99.99,,2013-05-30 10:22:00,
2013-05-30 03:32:00,50.0,43.0,-100.00,NE,45,7.0,10.0,78,-99.99,,,-99.99,,2013-05-30 10:32:00,
2013-05-30 03:42:00,51.0,44.0,-100.00,NE,49,7.0,10.0,77,-99.99,,,-99.99,,2013-05-30 10:42:00,
2013-05-30 03:52:00,50.0,43.0,-100.00,NE,42,7.0,10.0,77,-99.99,,,-99.99,,2013-05-30 10:52:00,
2013-05-30 04:02:00,50.0,43.0,-100.00,NE,47,7.0,10.0,77,-99.99,,,-99.99,,2013-05-30 11:02:00,
2013-05-30 04:12:00,51.0,43.0,-100.00,NE,52,8.0,10.0,75,-99.99,,,-99.99,,2013-05-30 11:12:00,
2013-05-30 04:21:00,51.0,43.0,-100.00,NE,49,8.0,10.0,75,-99.99,,,-99.99,,2013-05-30 11:21:00,
2013-05-30 04:32:00,51.0,43.0,-100.00,NE,45,7.0,9.0,75,-99.99,,,-99.99,,2013-05-30 11:32:00,
2013-05-30 04:42:00,50.0,42.0,-100.00,NE,43,7.0,9.0,75,-99.99,,,-99.99,,2013-05-30 11:42:00,
2013-05-30 04:52:00,50.0,42.0,-100.00,NE,49,8.0,11.0,75,-99.99,,,-99.99,,2013-05-30 11:52:00,
2013-05-30 05:01:00,51.0,43.0,-100.00,NE,49,7.0,10.0,74,-99.99,,,-99.99,,2013-05-30 12:01:00,
2013-05-30 05:11:00,50.0,43.0,-100.00,NE,40,7.0,10.0,76,-99.99,,,-99.99,,2013-05-30 12:11:00,
2013-05-30 05:21:00,49.0,42.0,-100.00,NE,45,7.0,9.0,77,-99.99,,,-99.99,,2013-05-30 12:21:00,
2013-05-30 05:32:00,49.0,42.0,-100.00,NE,43,7.0,10.0,77,-99.99,,,-99.99,,2013-05-30 12:32:00,
2013-05-30 05:42:00,49.0,42.0,-100.00,NE,46,6.0,8.0,77,-99.99,,,-99.99,,2013-05-30 12:42:00,
2013-05-30 05:52:00,49.0,42.0,-100.00,NE,44,6.0,9.0,77,-99.99,,,-99.99,,2013-05-30 12:52:00,
2013-05-30 06:01:00,49.0,42.0,-100.00,NE,43,6.0,10.0,76,-99.99,,,-99.99,,2013-05-30 13:01:00,
2013-05-30 06:11:00,49.0,42.0,-100.00,NE,38,6.0,9.0,76,-99.99,,,-99.99,,2013-05-30 13:11:00,
2013-05-30 06:21:00,50.0,42.0,-100.00,NE,34,6.0,9.0,74,-99.99,,,-99.99,,2013-05-30 13:21:00,
2013-05-30 06:32:00,50.0,41.0,-100.00,NE,51,8.0,10.0,72,-99.99,,,-99.99,,2013-05-30 13:32:00,
2013-05-30 06:41:00,50.0,41.0,-100.00,NE,44,7.0,11.0,70,-99.99,,,-99.99,,2013-05-30 13:41:00,
2013-05-30 06:52:00,51.0,41.0,-100.00,NE,42,7.0,10.0,69,-99.99,,,-99.99,,2013-05-30 13:52:00,
2013-05-30 07:01:00,52.0,42.0,-100.00,NE,44,7.0,9.0,68,-99.99,,,-99.99,,2013-05-30 14:01:00,
2013-05-30 07:11:00,53.0,42.0,-100.00,NE,46,6.0,8.0,66,-99.99,,,-99.99,,2013-05-30 14:11:00,
2013-05-30 07:21:00,55.0,43.0,-100.00,NE,39,6.0,8.0,63,-99.99,,,-99.99,,2013-05-30 14:21:00,
2013-05-30 07:32:00,57.0,43.0,-100.00,NE,43,6.0,9.0,59,-99.99,,,-99.99,,2013-05-30 14:32:00,
2013-05-30 07:42:00,59.0,43.0,-100.00,NE,46,5.0,7.0,55,-99.99,,,-99.99,,2013-05-30 14:42:00,
2013-05-30 07:51:00,62.0,43.0,-100.00,NE,39,3.0,5.0,50,-99.99,,,-99.99,,2013-05-30 14:51:00,
2013-05-30 08:01:00,65.0,43.0,-100.00,NE,43,2.0,3.0,45,-99.99,,,-99.99,,2013-05-30 15:01:00,
2013-05-30 08:11:00,68.0,43.0,-100.00,NE,45,2.0,4.0,41,-99.99,,,-99.99,,2013-05-30 15:11:00,
2013-05-30 08:22:00,70.0,40.0,-100.00,NNE,28,1.0,2.0,33,-99.99,,,-99.99,,2013-05-30 15:22:00,
2013-05-30 08:33:00,71.0,38.0,-100.00,North,358,2.0,4.0,30,-99.99,,,-99.99,,2013-05-30 15:33:00,
2013-05-30 08:42:00,71.0,39.0,-100.00,NW,322,2.0,4.0,31,-99.99,,,-99.99,,2013-05-30 15:42:00,
2013-05-30 09:03:00,72.0,38.0,-100.00,West,262,2.0,6.0,29,-99.99,,,-99.99,,2013-05-30 16:03:00,
2013-05-30 09:12:00,72.0,37.0,-100.00,WSW,245,4.0,8.0,28,-99.99,,,-99.99,,2013-05-30 16:12:00,
2013-05-30 09:22:00,73.0,36.0,-100.00,WSW,250,4.0,9.0,26,-99.99,,,-99.99,,2013-05-30 16:22:00,
2013-05-30 09:33:00,73.0,36.0,-100.00,WSW,252,5.0,9.0,26,-99.99,,,-99.99,,2013-05-30 16:33:00,
2013-05-30 09:42:00,75.0,37.0,-100.00,West,269,4.0,8.0,25,-99.99,,,-99.99,,2013-05-30 16:42:00,
2013-05-30 09:52:00,75.0,36.0,-100.00,West,262,5.0,10.0,24,-99.99,,,-99.99,,2013-05-30 16:52:00,
2013-05-30 10:02:00,75.0,37.0,-100.00,WSW,253,6.0,10.0,25,-99.99,,,-99.99,,2013-05-30 17:02:00,
2013-05-30 10:11:00,76.0,37.0,-100.00,WSW,256,5.0,9.0,24,-99.99,,,-99.99,,2013-05-30 17:11:00,
2013-05-30 10:22:00,77.0,37.0,-100.00,WSW,248,7.0,11.0,24,-99.99,,,-99.99,,2013-05-30 17:22:00,
2013-05-30 10:32:00,77.0,38.0,-100.00,WSW,257,6.0,12.0,25,-99.99,,,-99.99,,2013-05-30 17:32:00,
2013-05-30 10:42:00,77.0,38.0,-100.00,SW,232,8.0,15.0,25,-99.99,,,-99.99,,2013-05-30 17:42:00,
2013-05-30 10:52:00,77.0,39.0,-100.00,SW,233,8.0,15.0,26,-99.99,,,-99.99,,2013-05-30 17:52:00,
2013-05-30 11:02:00,77.0,39.0,-100.00,SW,225,9.0,14.0,26,-99.99,,,-99.99,,2013-05-30 18:02:00,
2013-05-30 11:11:00,77.0,39.0,-100.00,SW,230,9.0,14.0,26,-99.99,,,-99.99,,2013-05-30 18:11:00,
2013-05-30 11:21:00,77.0,39.0,-100.00,SW,230,9.0,14.0,26,-99.99,,,-99.99,,2013-05-30 18:21:00,
2013-05-30 11:32:00,78.0,39.0,-100.00,SW,233,8.0,15.0,25,-99.99,,,-99.99,,2013-05-30 18:32:00,
2013-05-30 11:42:00,78.0,39.0,-100.00,SW,222,9.0,13.0,25,-99.99,,,-99.99,,2013-05-30 18:42:00,
2013-05-30 11:51:00,78.0,39.0,-100.00,SW,228,9.0,14.0,25,-99.99,,,-99.99,,2013-05-30 18:51:00,
2013-05-30 12:01:00,79.0,39.0,-100.00,SW,225,9.0,15.0,24,-99.99,,,-99.99,,2013-05-30 19:01:00,
2013-05-30 12:11:00,79.0,39.0,-100.00,WSW,240,7.0,13.0,24,-99.99,,,-99.99,,2013-05-30 19:11:00,
2013-05-30 12:22:00,79.0,39.0,-100.00,SW,223,9.0,18.0,24,-99.99,,,-99.99,,2013-05-30 19:22:00,
2013-05-30 12:32:00,79.0,39.0,-100.00,SW,217,9.0,15.0,24,-99.99,,,-99.99,,2013-05-30 19:32:00,
2013-05-30 12:42:00,80.0,39.0,-100.00,WSW,241,9.0,14.0,23,-99.99,,,-99.99,,2013-05-30 19:42:00,
2013-05-30 12:52:00,80.0,39.0,-100.00,SW,227,9.0,15.0,23,-99.99,,,-99.99,,2013-05-30 19:52:00,
2013-05-30 13:01:00,81.0,40.0,-100.00,SW,234,8.0,14.0,23,-99.99,,,-99.99,,2013-05-30 20:01:00,
2013-05-30 13:11:00,81.0,40.0,-100.00,WSW,244,9.0,15.0,23,-99.99,,,-99.99,,2013-05-30 20:11:00,
2013-05-30 13:22:00,81.0,40.0,-100.00,WSW,240,8.0,14.0,23,-99.99,,,-99.99,,2013-05-30 20:22:00,
2013-05-30 13:33:00,81.0,39.0,-100.00,SW,226,8.0,14.0,22,-99.99,,,-99.99,,2013-05-30 20:33:00,
2013-05-30 13:41:00,81.0,40.0,-100.00,SW,228,8.0,16.0,23,-99.99,,,-99.99,,2013-05-30 20:41:00,
2013-05-30 13:51:00,81.0,40.0,-100.00,WSW,237,8.0,13.0,23,-99.99,,,-99.99,,2013-05-30 20:51:00,
2013-05-30 14:01:00,82.0,39.0,-100.00,SW,230,8.0,13.0,22,-99.99,,,-99.99,,2013-05-30 21:01:00,
2013-05-30 14:11:00,82.0,39.0,-100.00,SW,234,8.0,14.0,22,-99.99,,,-99.99,,2013-05-30 21:11:00,
2013-05-30 14:22:00,81.0,39.0,-100.00,SW,235,9.0,18.0,22,-99.99,,,-99.99,,2013-05-30 21:22:00,
2013-05-30 14:33:00,82.0,39.0,-100.00,SW,225,8.0,15.0,22,-99.99,,,-99.99,,2013-05-30 21:33:00,
2013-05-30 14:42:00,82.0,39.0,-100.00,SW,227,9.0,14.0,22,-99.99,,,-99.99,,2013-05-30 21:42:00,
2013-05-30 14:53:00,82.0,39.0,-100.00,SW,229,9.0,17.0,22,-99.99,,,-99.99,,2013-05-30 21:53:00,
2013-05-30 15:02:00,82.0,41.0,-100.00,SW,230,9.0,16.0,23,-99.99,,,-99.99,,2013-05-30 22:02:00,
2013-05-30 15:12:00,82.0,42.0,-100.00,SW,229,10.0,16.0,24,-99.99,,,-99.99,,2013-05-30 22:12:00,
2013-05-30 15:22:00,82.0,42.0,-100.00,SW,223,11.0,17.0,24,-99.99,,,-99.99,,2013-05-30 22:22:00,
2013-05-30 15:32:00,82.0,43.0,-100.00,SW,218,12.0,19.0,25,-99.99,,,-99.99,,2013-05-30 22:32:00,
2013-05-30 15:42:00,81.0,43.0,-100.00,SW,217,12.0,17.0,26,-99.99,,,-99.99,,2013-05-30 22:42:00,
2013-05-30 15:52:00,81.0,44.0,-100.00,SW,223,11.0,18.0,27,-99.99,,,-99.99,,2013-05-30 22:52:00,
2013-05-30 16:02:00,81.0,44.0,-100.00,SW,225,11.0,17.0,27,-99.99,,,-99.99,,2013-05-30 23:02:00,
2013-05-30 16:11:00,81.0,44.0,-100.00,SW,220,10.0,17.0,27,-99.99,,,-99.99,,2013-05-30 23:11:00,
2013-05-30 16:21:00,81.0,44.0,-100.00,SW,222,11.0,16.0,27,-99.99,,,-99.99,,2013-05-30 23:21:00,
2013-05-30 16:31:00,81.0,44.0,-100.00,SW,222,11.0,15.0,27,-99.99,,,-99.99,,2013-05-30 23:31:00,
2013-05-30 16:41:00,81.0,44.0,-100.00,SW,223,11.0,17.0,27,-99.99,,,-99.99,,2013-05-30 23:41:00,
2013-05-30 16:52:00,81.0,44.0,-100.00,SW,229,10.0,16.0,27,-99.99,,,-99.99,,2013-05-30 23:52:00,
2013-05-30 17:01:00,81.0,45.0,-100.00,SW,224,10.0,16.0,28,-99.99,,,-99.99,,2013-05-31 00:01:00,
2013-05-30 17:11:00,81.0,45.0,-100.00,SW,232,10.0,16.0,28,-99.99,,,-99.99,,2013-05-31 00:11:00,
2013-05-30 17:21:00,80.0,44.0,-100.00,SW,230,10.0,15.0,28,-99.99,,,-99.99,,2013-05-31 00:21:00,
2013-05-30 17:32:00,80.0,45.0,-100.00,SW,232,10.0,15.0,29,-99.99,,,-99.99,,2013-05-31 00:32:00,
2013-05-30 17:41:00,79.0,44.0,-100.00,SW,229,11.0,17.0,29,-99.99,,,-99.99,,2013-05-31 00:41:00,
2013-05-30 17:51:00,79.0,43.0,-100.00,SW,224,11.0,16.0,28,-99.99,,,-99.99,,2013-05-31 00:51:00,
2013-05-30 18:01:00,79.0,42.0,-100.00,SW,230,11.0,15.0,27,-99.99,,,-99.99,,2013-05-31 01:01:00,
2013-05-30 18:11:00,79.0,44.0,-100.00,SW,224,10.0,15.0,29,-99.99,,,-99.99,,2013-05-31 01:11:00,
2013-05-30 18:21:00,78.0,44.0,-100.00,SW,223,9.0,14.0,30,-99.99,,,-99.99,,2013-05-31 01:21:00,
2013-05-30 18:31:00,78.0,46.0,-100.00,SW,232,9.0,14.0,32,-99.99,,,-99.99,,2013-05-31 01:31:00,
2013-05-30 18:42:00,77.0,46.0,-100.00,SW,223,10.0,15.0,33,-99.99,,,-99.99,,2013-05-31 01:42:00,
2013-05-30 18:51:00,76.0,46.0,-100.00,SW,224,10.0,14.0,35,-99.99,,,-99.99,,2013-05-31 01:51:00,
2013-05-30 19:02:00,76.0,47.0,-100.00,SW,225,8.0,12.0,36,-99.99,,,-99.99,,2013-05-31 02:02:00,
2013-05-30 19:11:00,75.0,47.0,-100.00,SW,227,9.0,13.0,37,-99.99,,,-99.99,,2013-05-31 02:11:00,
2013-05-30 19:21:00,74.0,48.0,-100.00,SW,232,9.0,13.0,40,-99.99,,,-99.99,,2013-05-31 02:21:00,
2013-05-30 19:31:00,73.0,49.0,-100.00,SW,236,8.0,12.0,43,-99.99,,,-99.99,,2013-05-31 02:31:00,
2013-05-30 19:41:00,72.0,49.0,-100.00,SW,235,7.0,11.0,45,-99.99,,,-99.99,,2013-05-31 02:41:00,
2013-05-30 19:51:00,71.0,50.0,-100.00,SW,228,6.0,10.0,47,-99.99,,,-99.99,,2013-05-31 02:51:00,
2013-05-30 20:01:00,70.0,50.0,-100.00,SW,221,6.0,10.0,49,-99.99,,,-99.99,,2013-05-31 03:01:00,
2013-05-30 20:11:00,69.0,50.0,-100.00,SW,231,6.0,10.0,51,-99.99,,,-99.99,,2013-05-31 03:11:00,
2013-05-30 20:21:00,68.0,50.0,-100.00,SW,228,5.0,7.0,53,-99.99,,,-99.99,,2013-05-31 03:21:00,
2013-05-30 20:33:00,68.0,51.0,-100.00,SW,221,5.0,7.0,54,-99.99,,,-99.99,,2013-05-31 03:33:00,
2013-05-30 20:43:00,67.0,51.0,-100.00,SW,231,3.0,4.0,56,-99.99,,,-99.99,,2013-05-31 03:43:00,
2013-05-30 20:53:00,67.0,51.0,-100.00,WSW,256,4.0,5.0,56,-99.99,,,-99.99,,2013-05-31 03:53:00,
2013-05-30 21:02:00,66.0,50.0,-100.00,West,267,2.0,5.0,57,-99.99,,,-99.99,,2013-05-31 04:02:00,
2013-05-30 21:12:00,65.0,50.0,-100.00,NNE,19,1.0,1.0,59,-99.99,,,-99.99,,2013-05-31 04:12:00,
2013-05-30 21:22:00,64.0,50.0,-100.00,NNW,343,1.0,2.0,61,-99.99,,,-99.99,,2013-05-31 04:22:00,
2013-05-30 21:32:00,63.0,50.0,-100.00,North,8,2.0,3.0,63,-99.99,,,-99.99,,2013-05-31 04:32:00,
2013-05-30 21:42:00,63.0,51.0,-100.00,North,2,2.0,2.0,64,-99.99,,,-99.99,,2013-05-31 04:42:00,
2013-05-30 21:52:00,63.0,51.0,-100.00,North,2,2.0,2.0,64,-99.99,,,-99.99,,2013-05-31 04:52:00,
2013-05-30 22:02:00,62.0,50.0,-100.00,NNE,23,1.0,2.0,65,-99.99,,,-99.99,,2013-05-31 05:02:00,
2013-05-30 22:11:00,61.0,50.0,-100.00,NE,48,2.0,2.0,66,-99.99,,,-99.99,,2013-05-31 05:11:00,
2013-05-30 22:21:00,61.0,50.0,-100.00,ENE,63,3.0,5.0,66,-99.99,,,-99.99,,2013-05-31 05:21:00,
2013-05-30 22:31:00,60.0,49.0,-100.00,ENE,66,4.0,5.0,66,-99.99,,,-99.99,,2013-05-31 05:31:00,
2013-05-30 22:41:00,59.0,48.0,-100.00,NE,49,4.0,7.0,67,-99.99,,,-99.99,,2013-05-31 05:41:00,
2013-05-30 22:51:00,57.0,47.0,-100.00,NNE,29,3.0,4.0,69,-99.99,,,-99.99,,2013-05-31 05:51:00,
2013-05-30 23:01:00,57.0,47.0,-100.00,NE,41,2.0,4.0,70,-99.99,,,-99.99,,2013-05-31 06:01:00,
2013-05-30 23:11:00,56.0,46.0,-100.00,NE,46,3.0,4.0,70,-99.99,,,-99.99,,2013-05-31 06:11:00,
2013-05-30 23:21:00,56.0,47.0,-100.00,NNE,30,3.0,5.0,71,-99.99,,,-99.99,,2013-05-31 06:21:00,
2013-05-30 23:31:00,55.0,46.0,-100.00,NE,44,5.0,8.0,72,-99.99,,,-99.99,,2013-05-31 06:31:00,
2013-05-30 23:41:00,55.0,46.0,-100.00,NE,49,6.0,9.0,72,-99.99,,,-99.99,,2013-05-31 06:41:00,
2013-05-30 23:51:00,55.0,46.0,-100.00,NE,50,5.0,8.0,72,-99.99,,,-99.99,,2013-05-31 06:51:00,